When you browse on this site, cookies collect data to enhance your experience and personalize the content and advertising you see.
Visit our Privacy Policy to learn more. By continuing to use the site, you agree to this use of cookies and data.
  • In Österreich
  • Länderverzeichnis
  • Für 7 Tage
  • Wassertemperatur
  • Wetterkarte
  • News
  • Widgets
  • user-avatar
    Anmelden

    Stündliche Wetter Rochechouart

    Heute, 5 April, Sonntag

    Zeit Temperatur Niederschläge Wind Luftdruck Luftfeuchtigkeit
    00:00 +8°C° 0 mm 2 m/S 740 mmHg 73%
    01:00 +7°C° 0 mm 2 m/S 740 mmHg 67%
    02:00 +7°C° 0 mm 3 m/S 740 mmHg 61%
    03:00 +7°C° 0 mm 3 m/S 740 mmHg 55%
    04:00 +7°C° 0 mm 3 m/S 740 mmHg 54%
    05:00 +8°C° 0 mm 3 m/S 740 mmHg 52%
    06:00 +8°C° 0 mm 3 m/S 740 mmHg 51%
    07:00 +10°C° 0 mm 4 m/S 740 mmHg 48%
    08:00 +12°C° 0 mm 4 m/S 740 mmHg 46%
    09:00 +14°C° 0 mm 4 m/S 740 mmHg 43%
    10:00 +15°C° 0 mm 4 m/S 740 mmHg 41%
    11:00 +18°C° 0 mm 4 m/S 740 mmHg 40%
    12:00 +19°C° 0 mm 4 m/S 740 mmHg 38%
    13:00 +19°C° 0 mm 4 m/S 740 mmHg 39%
    14:00 +19°C° 0 mm 4 m/S 739 mmHg 40%
    15:00 +20°C° 0 mm 4 m/S 739 mmHg 41%
    16:00 +18°C° 0 mm 3 m/S 739 mmHg 47%
    17:00 +17°C° 0 mm 3 m/S 739 mmHg 52%
    18:00 +14°C° 0 mm 3 m/S 739 mmHg 57%
    19:00 +13°C° 0 mm 3 m/S 739 mmHg 55%
    20:00 +12°C° 0 mm 3 m/S 740 mmHg 52%
    21:00 +11°C° 0 mm 4 m/S 740 mmHg 50%
    22:00 +11°C° 0 mm 4 m/S 740 mmHg 49%
    23:00 +10°C° 0 mm 4 m/S 740 mmHg 48%

    Morgen, 6 April, Montag

    Zeit Temperatur Niederschläge Wind Luftdruck Luftfeuchtigkeit
    00:00 +10°C° 0 mm 4 m/S 741 mmHg 47%
    01:00 +10°C° 0 mm 4 m/S 741 mmHg 47%
    02:00 +10°C° 0 mm 4 m/S 741 mmHg 46%
    03:00 +10°C° 0 mm 4 m/S 741 mmHg 46%
    04:00 +10°C° 0 mm 4 m/S 741 mmHg 48%
    05:00 +10°C° 0 mm 4 m/S 741 mmHg 51%
    06:00 +10°C° 0 mm 4 m/S 741 mmHg 53%
    07:00 +11°C° 0 mm 4 m/S 742 mmHg 54%
    08:00 +12°C° 0 mm 4 m/S 742 mmHg 56%
    09:00 +12°C° 0 mm 4 m/S 743 mmHg 57%
    10:00 +13°C° 0 mm 3 m/S 743 mmHg 57%
    11:00 +14°C° 0 mm 3 m/S 744 mmHg 58%
    12:00 +15°C° 0 mm 2 m/S 744 mmHg 58%
    13:00 +16°C° 0 mm 2 m/S 744 mmHg 59%
    14:00 +16°C° 0 mm 2 m/S 744 mmHg 59%
    15:00 +18°C° 0 mm 1 m/S 745 mmHg 60%
    16:00 +15°C° 0.1 mm 1 m/S 745 mmHg 67%
    17:00 +14°C° 0.1 mm 1 m/S 745 mmHg 75%
    18:00 +13°C° 0.1 mm 1 m/S 745 mmHg 82%
    19:00 +12°C° 0 mm 1 m/S 746 mmHg 86%
    20:00 +11°C° 0 mm 1 m/S 746 mmHg 90%
    21:00 +10°C° 0 mm 1 m/S 747 mmHg 94%
    22:00 +10°C° 0 mm 1 m/S 747 mmHg 91%
    23:00 +10°C° 0 mm 1 m/S 747 mmHg 89%

    übermorgen, 7 April, Dienstag

    Zeit Temperatur Niederschläge Wind Luftdruck Luftfeuchtigkeit
    00:00 +10°C° 0 mm 1 m/S 747 mmHg 86%
    01:00 +10°C° 0 mm 1 m/S 747 mmHg 82%
    02:00 +9°C° 0 mm 1 m/S 747 mmHg 77%
    03:00 +9°C° 0 mm 1 m/S 747 mmHg 73%
    04:00 +9°C° 0 mm 1 m/S 747 mmHg 72%
    05:00 +9°C° 0 mm 1 m/S 747 mmHg 72%
    06:00 +9°C° 0 mm 1 m/S 747 mmHg 71%
    07:00 +11°C° 0 mm 1 m/S 747 mmHg 64%
    08:00 +13°C° 0 mm 1 m/S 747 mmHg 56%
    09:00 +15°C° 0 mm 1 m/S 748 mmHg 49%
    10:00 +16°C° 0 mm 1 m/S 747 mmHg 46%
    11:00 +19°C° 0 mm 1 m/S 747 mmHg 43%
    12:00 +20°C° 0 mm 1 m/S 747 mmHg 40%
    13:00 +20°C° 0 mm 1 m/S 747 mmHg 39%
    14:00 +21°C° 0 mm 1 m/S 747 mmHg 38%
    15:00 +21°C° 0 mm 1 m/S 746 mmHg 38%
    16:00 +19°C° 0 mm 1 m/S 746 mmHg 47%
    17:00 +16°C° 0 mm 0 m/S 746 mmHg 57%
    18:00 +14°C° 0 mm 0 m/S 746 mmHg 66%
    19:00 +13°C° 0 mm 0 m/S 746 mmHg 69%
    20:00 +13°C° 0 mm 1 m/S 747 mmHg 72%
    21:00 +12°C° 0 mm 1 m/S 747 mmHg 75%
    22:00 +11°C° 0 mm 1 m/S 747 mmHg 75%
    23:00 +11°C° 0 mm 1 m/S 747 mmHg 75%

    8 April, Mittwoch

    Zeit Temperatur Niederschläge Wind Luftdruck Luftfeuchtigkeit
    00:00 +11°C° 0 mm 1 m/S 747 mmHg 76%
    01:00 +10°C° 0 mm 1 m/S 747 mmHg 75%
    02:00 +10°C° 0 mm 1 m/S 747 mmHg 74%
    03:00 +9°C° 0 mm 1 m/S 747 mmHg 74%
    04:00 +9°C° 0 mm 1 m/S 747 mmHg 73%
    05:00 +9°C° 0 mm 1 m/S 747 mmHg 73%
    06:00 +9°C° 0 mm 1 m/S 747 mmHg 72%
    07:00 +12°C° 0 mm 1 m/S 747 mmHg 64%
    08:00 +15°C° 0 mm 1 m/S 747 mmHg 56%
    09:00 +17°C° 0 mm 2 m/S 747 mmHg 47%
    10:00 +19°C° 0 mm 2 m/S 747 mmHg 44%
    11:00 +20°C° 0 mm 2 m/S 746 mmHg 41%
    12:00 +21°C° 0 mm 2 m/S 746 mmHg 37%
    13:00 +21°C° 0 mm 2 m/S 746 mmHg 39%
    14:00 +23°C° 0 mm 1 m/S 746 mmHg 40%
    15:00 +23°C° 0 mm 1 m/S 745 mmHg 41%
    16:00 +21°C° 0 mm 1 m/S 745 mmHg 50%
    17:00 +19°C° 0 mm 1 m/S 745 mmHg 60%
    18:00 +18°C° 0 mm 1 m/S 744 mmHg 69%
    19:00 +15°C° 0 mm 1 m/S 745 mmHg 73%
    20:00 +14°C° 0 mm 1 m/S 745 mmHg 78%
    21:00 +12°C° 0 mm 1 m/S 745 mmHg 82%
    22:00 +12°C° 0 mm 1 m/S 745 mmHg 82%
    23:00 +11°C° 0 mm 1 m/S 745 mmHg 82%

    9 April, Donnerstag

    Zeit Temperatur Niederschläge Wind Luftdruck Luftfeuchtigkeit
    00:00 +11°C° 0 mm 1 m/S 745 mmHg 82%
    01:00 +10°C° 0 mm 1 m/S 745 mmHg 78%
    02:00 +10°C° 0 mm 1 m/S 744 mmHg 73%
    03:00 +10°C° 0 mm 1 m/S 744 mmHg 69%
    04:00 +9°C° 0 mm 1 m/S 744 mmHg 65%
    05:00 +9°C° 0 mm 1 m/S 744 mmHg 62%
    06:00 +9°C° 0 mm 1 m/S 744 mmHg 59%
    07:00 +12°C° 0 mm 1 m/S 744 mmHg 53%
    08:00 +15°C° 0 mm 1 m/S 745 mmHg 46%
    09:00 +19°C° 0 mm 1 m/S 745 mmHg 40%
    10:00 +20°C° 0 mm 1 m/S 744 mmHg 38%
    11:00 +22°C° 0 mm 1 m/S 744 mmHg 35%
    12:00 +24°C° 0 mm 1 m/S 744 mmHg 33%
    13:00 +24°C° 0 mm 1 m/S 744 mmHg 34%
    14:00 +24°C° 0 mm 1 m/S 744 mmHg 34%
    15:00 +24°C° 0 mm 1 m/S 743 mmHg 35%
    16:00 +22°C° 0 mm 1 m/S 743 mmHg 45%
    17:00 +20°C° 0 mm 1 m/S 743 mmHg 56%
    18:00 +16°C° 0 mm 0 m/S 743 mmHg 67%
    19:00 +16°C° 0 mm 1 m/S 743 mmHg 70%
    20:00 +14°C° 0 mm 1 m/S 743 mmHg 74%
    21:00 +13°C° 0 mm 1 m/S 743 mmHg 78%
    22:00 +12°C° 0 mm 1 m/S 743 mmHg 77%
    23:00 +12°C° 0 mm 1 m/S 744 mmHg 75%

    10 April, Freitag

    Zeit Temperatur Niederschläge Wind Luftdruck Luftfeuchtigkeit
    00:00 +12°C° 0 mm 1 m/S 744 mmHg 74%
    01:00 +11°C° 0 mm 1 m/S 743 mmHg 72%
    02:00 +11°C° 0 mm 1 m/S 743 mmHg 71%
    03:00 +10°C° 0 mm 1 m/S 743 mmHg 69%
    04:00 +10°C° 0 mm 1 m/S 743 mmHg 66%
    05:00 +10°C° 0 mm 1 m/S 743 mmHg 64%
    06:00 +10°C° 0 mm 1 m/S 743 mmHg 61%
    07:00 +12°C° 0 mm 1 m/S 743 mmHg 55%
    08:00 +15°C° 0 mm 1 m/S 744 mmHg 48%
    09:00 +18°C° 0 mm 1 m/S 744 mmHg 42%
    10:00 +20°C° 0 mm 1 m/S 744 mmHg 38%
    11:00 +21°C° 0 mm 1 m/S 744 mmHg 35%
    12:00 +23°C° 0 mm 1 m/S 744 mmHg 31%
    13:00 +23°C° 0 mm 1 m/S 743 mmHg 33%
    14:00 +23°C° 0 mm 1 m/S 743 mmHg 35%
    15:00 +23°C° 0 mm 1 m/S 743 mmHg 37%
    16:00 +21°C° 0 mm 1 m/S 743 mmHg 47%
    17:00 +19°C° 0 mm 1 m/S 743 mmHg 57%
    18:00 +16°C° 0 mm 1 m/S 743 mmHg 67%
    19:00 +14°C° 0 mm 0 m/S 743 mmHg 72%
    20:00 +13°C° 0 mm 0 m/S 743 mmHg 77%
    21:00 +12°C° 0 mm 0 m/S 743 mmHg 81%
    22:00 +12°C° 0 mm 0 m/S 744 mmHg 83%
    23:00 +12°C° 0 mm 0 m/S 744 mmHg 84%
    Mehr zeigen